Year,Month,Day,Hour,Minute,Value (Times are PST for windspeed in km/hr)
2021,11,14,00,00,9.20
2021,11,14,00,01,1.90
2021,11,14,00,02,7.30
2021,11,14,00,03,14.60
2021,11,14,00,04,12.00
2021,11,14,00,05,15.00
2021,11,14,00,06,11.50
2021,11,14,00,07,5.10
2021,11,14,00,08,2.20
2021,11,14,00,09,2.10
2021,11,14,00,10,5.50
2021,11,14,00,11,8.00
2021,11,14,00,12,7.10
2021,11,14,00,13,7.30
2021,11,14,00,14,9.20
2021,11,14,00,15,6.00
2021,11,14,00,16,9.10
2021,11,14,00,17,3.10
2021,11,14,00,18,1.20
2021,11,14,00,19,0.70
2021,11,14,00,20,5.40
2021,11,14,00,21,2.70
2021,11,14,00,22,2.80
2021,11,14,00,23,4.10
2021,11,14,00,24,4.30
2021,11,14,00,25,2.40
2021,11,14,00,26,3.90
2021,11,14,00,27,6.80
2021,11,14,00,28,0.20
2021,11,14,00,29,3.00
2021,11,14,00,30,7.20
2021,11,14,00,31,6.20
2021,11,14,00,32,5.90
2021,11,14,00,33,0.80
2021,11,14,00,34,3.70
2021,11,14,00,35,9.30
2021,11,14,00,36,12.60
2021,11,14,00,37,5.00
2021,11,14,00,38,1.30
2021,11,14,00,39,3.50
2021,11,14,00,40,6.40
2021,11,14,00,41,7.70
2021,11,14,00,42,8.20
2021,11,14,00,43,9.80
2021,11,14,00,44,4.50
2021,11,14,00,45,7.30
2021,11,14,00,46,10.20
2021,11,14,00,47,8.10
2021,11,14,00,48,2.20
2021,11,14,00,49,5.00
2021,11,14,00,50,9.70
2021,11,14,00,51,10.40
2021,11,14,00,52,12.60
2021,11,14,00,53,6.70
2021,11,14,00,54,6.80
2021,11,14,00,55,2.60
2021,11,14,00,56,1.90
2021,11,14,00,57,11.40
2021,11,14,00,58,14.60
2021,11,14,00,59,16.90
2021,11,14,01,00,10.40
2021,11,14,01,01,3.80
2021,11,14,01,02,8.10
2021,11,14,01,03,12.30
2021,11,14,01,04,11.20
2021,11,14,01,05,9.30
2021,11,14,01,06,11.00
2021,11,14,01,07,13.20
2021,11,14,01,08,12.80
2021,11,14,01,09,11.10
2021,11,14,01,10,8.10
2021,11,14,01,11,9.30
2021,11,14,01,12,8.90
2021,11,14,01,13,7.00
2021,11,14,01,14,10.60
2021,11,14,01,15,1.90
2021,11,14,01,16,4.90
2021,11,14,01,17,5.50
2021,11,14,01,18,6.90
2021,11,14,01,19,11.00
2021,11,14,01,20,12.40
2021,11,14,01,21,18.40
2021,11,14,01,22,14.60
2021,11,14,01,23,10.10
2021,11,14,01,24,7.00
2021,11,14,01,25,7.10
2021,11,14,01,26,9.30
2021,11,14,01,27,5.90
2021,11,14,01,28,7.00
2021,11,14,01,29,7.70
2021,11,14,01,30,4.00
2021,11,14,01,31,2.50
2021,11,14,01,32,2.70
2021,11,14,01,33,9.90
2021,11,14,01,34,4.20
2021,11,14,01,35,7.60
2021,11,14,01,36,10.40
2021,11,14,01,37,7.30
2021,11,14,01,38,6.60
2021,11,14,01,39,8.90
2021,11,14,01,40,4.40
2021,11,14,01,41,6.70
2021,11,14,01,42,8.10
2021,11,14,01,43,6.80
2021,11,14,01,44,7.90
2021,11,14,01,45,9.20
2021,11,14,01,46,0.90
2021,11,14,01,47,2.90
2021,11,14,01,48,9.00
2021,11,14,01,49,11.90
2021,11,14,01,50,11.40
2021,11,14,01,51,11.00
2021,11,14,01,52,11.30
2021,11,14,01,53,7.00
2021,11,14,01,54,10.10
2021,11,14,01,55,10.10
2021,11,14,01,56,8.70
2021,11,14,01,57,7.10
2021,11,14,01,58,6.30
2021,11,14,01,59,0.40
2021,11,14,02,00,4.10
2021,11,14,02,01,3.10
2021,11,14,02,02,1.30
2021,11,14,02,03,2.80
2021,11,14,02,04,0.60
2021,11,14,02,05,2.30
2021,11,14,02,06,4.90
2021,11,14,02,07,6.20
2021,11,14,02,08,8.40
2021,11,14,02,09,3.00
2021,11,14,02,10,1.60
2021,11,14,02,11,0.10
2021,11,14,02,12,0.00
2021,11,14,02,13,0.20
2021,11,14,02,14,8.90
2021,11,14,02,15,12.30
2021,11,14,02,16,4.50
2021,11,14,02,17,4.90
2021,11,14,02,18,7.70
2021,11,14,02,19,6.20
2021,11,14,02,20,1.50
2021,11,14,02,21,1.50
2021,11,14,02,22,0.20
2021,11,14,02,23,3.60
2021,11,14,02,24,1.90
2021,11,14,02,25,2.40
2021,11,14,02,26,1.50
2021,11,14,02,27,1.10
2021,11,14,02,28,0.80
2021,11,14,02,29,2.30
2021,11,14,02,30,1.50
2021,11,14,02,31,3.10
2021,11,14,02,32,2.40
2021,11,14,02,33,1.40
2021,11,14,02,34,2.40
2021,11,14,02,35,3.40
2021,11,14,02,36,2.30
2021,11,14,02,37,3.10
2021,11,14,02,38,9.10
2021,11,14,02,39,7.70
2021,11,14,02,40,8.70
2021,11,14,02,41,6.10
2021,11,14,02,42,5.40
2021,11,14,02,43,5.90
2021,11,14,02,44,10.90
2021,11,14,02,45,6.10
2021,11,14,02,46,4.40
2021,11,14,02,47,13.80
2021,11,14,02,48,7.70
2021,11,14,02,49,5.40
2021,11,14,02,50,2.60
2021,11,14,02,51,7.10
2021,11,14,02,52,8.90
2021,11,14,02,53,11.20
2021,11,14,02,54,8.00
2021,11,14,02,55,3.40
2021,11,14,02,56,7.90
2021,11,14,02,57,5.60
2021,11,14,02,58,2.80
2021,11,14,02,59,6.60
2021,11,14,03,00,8.00
2021,11,14,03,01,9.40
2021,11,14,03,02,3.70
2021,11,14,03,03,3.10
2021,11,14,03,04,6.90
2021,11,14,03,05,12.00
2021,11,14,03,06,8.70
2021,11,14,03,07,2.60
2021,11,14,03,08,9.50
2021,11,14,03,09,15.00
2021,11,14,03,10,9.70
2021,11,14,03,11,5.20
2021,11,14,03,12,6.10
2021,11,14,03,13,8.10
2021,11,14,03,14,6.50
2021,11,14,03,15,5.00
2021,11,14,03,16,7.70
2021,11,14,03,17,8.40
2021,11,14,03,18,0.90
2021,11,14,03,19,5.10
2021,11,14,03,20,2.30
2021,11,14,03,21,0.00
2021,11,14,03,22,0.00
2021,11,14,03,23,0.00
2021,11,14,03,24,0.00
2021,11,14,03,25,0.00
2021,11,14,03,26,0.00
2021,11,14,03,27,2.20
2021,11,14,03,28,0.80
2021,11,14,03,29,6.40
2021,11,14,03,30,7.30
2021,11,14,03,31,5.60
2021,11,14,03,32,7.20
2021,11,14,03,33,4.00
2021,11,14,03,34,12.10
2021,11,14,03,35,10.10
2021,11,14,03,36,5.20
2021,11,14,03,37,6.40
2021,11,14,03,38,0.30
2021,11,14,03,39,5.20
2021,11,14,03,40,8.40
2021,11,14,03,41,7.20
2021,11,14,03,42,12.60
2021,11,14,03,43,8.50
2021,11,14,03,44,2.20
2021,11,14,03,45,3.70
2021,11,14,03,46,13.10
2021,11,14,03,47,15.90
2021,11,14,03,48,9.00
2021,11,14,03,49,5.50
2021,11,14,03,50,5.60
2021,11,14,03,51,7.30
2021,11,14,03,52,10.70
2021,11,14,03,53,7.30
2021,11,14,03,54,10.40
2021,11,14,03,55,5.60
2021,11,14,03,56,11.30
2021,11,14,03,57,8.50
2021,11,14,03,58,12.10
2021,11,14,03,59,10.20
2021,11,14,04,00,13.10
2021,11,14,04,01,8.70
2021,11,14,04,02,2.90
2021,11,14,04,03,14.40
2021,11,14,04,04,6.80
2021,11,14,04,05,11.10
2021,11,14,04,06,7.60
2021,11,14,04,07,7.10
2021,11,14,04,08,12.90
2021,11,14,04,09,12.90
2021,11,14,04,10,12.90
2021,11,14,04,11,12.90
2021,11,14,04,12,12.90
2021,11,14,04,13,12.90
2021,11,14,04,14,12.90
2021,11,14,04,15,12.90
2021,11,14,04,16,12.90
2021,11,14,04,17,12.90
2021,11,14,08,48,13.40
2021,11,14,08,49,15.10
2021,11,14,08,50,12.40
2021,11,14,08,51,13.60
2021,11,14,08,52,16.00
2021,11,14,08,53,12.60
2021,11,14,08,54,13.60
2021,11,14,08,55,13.30
2021,11,14,08,56,13.40
2021,11,14,08,57,7.00
2021,11,14,08,58,10.40
2021,11,14,08,59,12.10
2021,11,14,09,00,12.60
2021,11,14,09,01,10.90
2021,11,14,09,02,7.10
2021,11,14,09,03,8.20
2021,11,14,09,04,11.60
2021,11,14,09,05,11.30
2021,11,14,09,06,11.30
2021,11,14,09,07,10.60
2021,11,14,09,08,7.80
2021,11,14,09,09,9.70
2021,11,14,09,10,10.80
2021,11,14,09,11,10.10
2021,11,14,09,12,12.20
2021,11,14,09,13,13.50
2021,11,14,09,14,12.30
2021,11,14,09,15,8.10
2021,11,14,09,16,12.30
2021,11,14,09,17,12.50
2021,11,14,09,18,11.30
2021,11,14,09,19,13.00
2021,11,14,09,20,11.40
2021,11,14,09,21,11.60
2021,11,14,09,22,10.40
2021,11,14,09,23,7.70
2021,11,14,09,24,10.10
2021,11,14,09,25,9.00
2021,11,14,09,26,8.90
2021,11,14,09,27,12.80
2021,11,14,09,28,9.70
2021,11,14,09,29,9.30
2021,11,14,09,30,7.30
2021,11,14,09,31,8.30
2021,11,14,09,32,10.90
2021,11,14,09,33,10.90
2021,11,14,09,34,7.30
2021,11,14,09,35,11.40
2021,11,14,09,36,11.40
2021,11,14,09,37,12.30
2021,11,14,09,38,13.60
2021,11,14,09,39,10.00
2021,11,14,09,40,9.60
2021,11,14,09,41,6.90
2021,11,14,09,42,9.80
2021,11,14,09,43,8.20
2021,11,14,09,44,7.20
2021,11,14,09,45,11.30
2021,11,14,09,46,4.60
2021,11,14,09,47,2.90
2021,11,14,09,48,8.00
2021,11,14,09,49,5.80
2021,11,14,09,50,10.80
2021,11,14,09,51,7.30
2021,11,14,09,52,8.00
2021,11,14,09,53,9.30
2021,11,14,09,54,11.50
2021,11,14,09,55,5.30
2021,11,14,09,56,9.80
2021,11,14,09,57,9.70
2021,11,14,09,58,12.00
2021,11,14,09,59,10.30
2021,11,14,10,00,5.20
2021,11,14,10,01,6.40
2021,11,14,10,02,8.10
2021,11,14,10,03,2.90
2021,11,14,10,04,10.20
2021,11,14,10,05,9.10
2021,11,14,10,06,10.50
2021,11,14,10,07,9.50
2021,11,14,10,08,12.30
2021,11,14,10,09,10.60
2021,11,14,10,10,9.70
2021,11,14,10,11,4.20
2021,11,14,10,12,7.40
2021,11,14,10,13,7.00
2021,11,14,10,14,9.20
2021,11,14,10,15,10.40
2021,11,14,10,16,13.00
2021,11,14,10,17,13.30
2021,11,14,10,18,9.20
2021,11,14,10,19,8.50
2021,11,14,10,20,11.30
2021,11,14,10,21,11.20
2021,11,14,10,22,8.40
2021,11,14,10,23,7.20
2021,11,14,10,24,7.40
2021,11,14,10,25,9.40
2021,11,14,10,26,10.00
2021,11,14,10,27,8.50
2021,11,14,10,28,9.70
2021,11,14,10,29,10.60
2021,11,14,10,30,5.30
2021,11,14,10,31,8.20
2021,11,14,10,32,9.50
2021,11,14,10,33,7.30
2021,11,14,10,34,11.30
2021,11,14,10,35,12.10
2021,11,14,10,36,11.00
2021,11,14,10,37,8.80
2021,11,14,10,38,11.20
2021,11,14,10,39,8.90
2021,11,14,10,40,8.40
2021,11,14,10,41,5.60
2021,11,14,10,42,8.60
2021,11,14,10,43,9.30
2021,11,14,10,44,8.90
2021,11,14,10,45,5.60
2021,11,14,10,46,6.80
2021,11,14,10,47,9.20
2021,11,14,10,48,11.00
2021,11,14,10,49,7.20
2021,11,14,10,50,8.10
2021,11,14,10,51,9.90
2021,11,14,10,52,9.70
2021,11,14,10,53,8.90
2021,11,14,10,54,9.30
2021,11,14,10,55,10.40
2021,11,14,10,56,6.00
2021,11,14,10,57,9.40
2021,11,14,10,58,9.20
2021,11,14,10,59,8.40
2021,11,14,11,00,9.30
2021,11,14,11,01,7.40
2021,11,14,11,02,5.20
2021,11,14,11,03,9.00
2021,11,14,11,04,11.00
2021,11,14,11,05,8.40
2021,11,14,11,06,8.70
2021,11,14,11,07,7.70
2021,11,14,11,08,10.00
2021,11,14,11,09,10.40
2021,11,14,11,10,8.60
2021,11,14,11,11,10.00
2021,11,14,11,12,9.10
2021,11,14,11,13,12.90
2021,11,14,11,14,9.80
2021,11,14,11,15,7.40
2021,11,14,11,16,10.80
2021,11,14,11,17,9.60
2021,11,14,11,18,11.40
2021,11,14,11,19,9.60
2021,11,14,11,20,10.50
2021,11,14,11,21,9.40
2021,11,14,11,22,11.10
2021,11,14,11,23,10.00
2021,11,14,11,24,9.00
2021,11,14,11,25,10.30
2021,11,14,11,26,10.00
2021,11,14,11,27,7.50
2021,11,14,11,28,9.80
2021,11,14,11,29,8.60
2021,11,14,11,30,7.40
2021,11,14,11,31,8.70
2021,11,14,11,32,7.80
2021,11,14,11,33,8.60
2021,11,14,11,34,9.00
2021,11,14,11,35,5.30
2021,11,14,11,36,4.80
2021,11,14,11,37,3.00
2021,11,14,11,38,2.30
2021,11,14,11,39,4.40
2021,11,14,11,40,7.50
2021,11,14,11,41,6.90
2021,11,14,11,42,8.60
2021,11,14,11,43,11.40
2021,11,14,11,44,11.70
2021,11,14,11,45,8.30
2021,11,14,11,46,11.20
2021,11,14,11,47,8.30
2021,11,14,11,48,10.30
2021,11,14,11,49,13.00
2021,11,14,11,50,10.90
2021,11,14,11,51,11.00
2021,11,14,11,52,11.50
2021,11,14,11,53,9.70
2021,11,14,11,54,9.90
2021,11,14,11,55,9.30
2021,11,14,11,56,9.90
2021,11,14,11,57,10.90
2021,11,14,11,58,16.70
2021,11,14,11,59,9.60
2021,11,14,12,00,10.80
2021,11,14,12,01,10.70
2021,11,14,12,02,12.60
2021,11,14,12,03,11.80
2021,11,14,12,04,9.90
2021,11,14,12,05,12.50
2021,11,14,12,06,10.10
2021,11,14,12,07,7.40
2021,11,14,12,08,7.20
2021,11,14,12,09,8.70
2021,11,14,12,10,9.30
2021,11,14,12,11,8.80
2021,11,14,12,12,7.60
2021,11,14,12,13,11.20
2021,11,14,12,14,10.00
2021,11,14,12,15,10.10
2021,11,14,12,16,8.30
2021,11,14,12,17,9.30
2021,11,14,12,18,8.60
2021,11,14,12,19,10.70
2021,11,14,12,20,13.90
2021,11,14,12,21,10.10
2021,11,14,12,22,9.60
2021,11,14,12,23,7.30
2021,11,14,12,24,5.90
2021,11,14,12,25,7.80
2021,11,14,12,26,7.40
2021,11,14,12,27,7.20
2021,11,14,12,28,5.70
2021,11,14,12,29,2.80
2021,11,14,12,30,5.10
2021,11,14,12,31,6.40
2021,11,14,12,32,5.00
2021,11,14,12,33,5.60
2021,11,14,12,34,3.20
2021,11,14,12,35,1.90
2021,11,14,12,36,1.10
2021,11,14,12,37,3.00
2021,11,14,12,38,1.60
2021,11,14,12,39,3.00
2021,11,14,12,40,3.60
2021,11,14,12,41,2.00
2021,11,14,12,42,0.00
2021,11,14,12,43,1.80
2021,11,14,12,44,5.00
2021,11,14,12,45,0.90
2021,11,14,12,46,0.10
2021,11,14,12,47,4.50
2021,11,14,12,48,3.40
2021,11,14,12,49,2.40
2021,11,14,12,50,0.70
2021,11,14,12,51,2.10
2021,11,14,12,52,5.40
2021,11,14,12,53,4.10
2021,11,14,12,54,4.40
2021,11,14,12,55,6.40
2021,11,14,12,56,12.80
2021,11,14,12,57,5.60
2021,11,14,12,58,2.00
2021,11,14,12,59,0.30
2021,11,14,13,00,4.10
2021,11,14,13,01,9.70
2021,11,14,13,02,4.70
2021,11,14,13,03,5.10
2021,11,14,13,04,11.00
2021,11,14,13,05,6.70
2021,11,14,13,06,6.40
2021,11,14,13,07,6.30
2021,11,14,13,08,3.10
2021,11,14,13,09,4.70
2021,11,14,13,10,5.00
2021,11,14,13,11,2.30
2021,11,14,13,12,5.20
2021,11,14,13,13,1.00
2021,11,14,13,14,2.10
2021,11,14,13,15,4.90
2021,11,14,13,16,5.70
2021,11,14,13,17,8.70
2021,11,14,13,18,10.00
2021,11,14,13,19,3.90
2021,11,14,13,20,1.50
2021,11,14,13,21,5.70
2021,11,14,13,22,7.40
2021,11,14,13,23,6.10
2021,11,14,13,24,6.60
2021,11,14,13,25,1.10
2021,11,14,13,26,2.10
2021,11,14,13,27,0.90
2021,11,14,13,28,0.20
2021,11,14,13,29,5.10
2021,11,14,13,30,4.00
2021,11,14,13,31,2.00
2021,11,14,13,32,1.40
2021,11,14,13,33,0.60
2021,11,14,13,34,1.40
2021,11,14,13,35,0.60
2021,11,14,13,36,1.20
2021,11,14,13,37,2.40
2021,11,14,13,38,3.00
2021,11,14,13,39,4.00
2021,11,14,13,40,1.70
2021,11,14,13,41,6.20
2021,11,14,13,42,7.30
2021,11,14,13,43,5.10
2021,11,14,13,44,1.00
2021,11,14,13,45,0.00
2021,11,14,13,46,0.30
2021,11,14,13,47,0.70
2021,11,14,13,48,0.00
2021,11,14,13,49,0.10
2021,11,14,13,50,1.40
2021,11,14,13,51,0.00
2021,11,14,13,52,0.00
2021,11,14,13,53,0.20
2021,11,14,13,54,0.90
2021,11,14,13,55,0.20
2021,11,14,13,56,0.00
2021,11,14,13,57,0.00
2021,11,14,13,58,2.30
2021,11,14,13,59,3.60
2021,11,14,14,00,0.30
2021,11,14,14,01,0.00
2021,11,14,14,02,2.40
2021,11,14,14,03,4.50
2021,11,14,14,04,0.10
2021,11,14,14,05,0.20
2021,11,14,14,06,2.70
2021,11,14,14,07,0.20
2021,11,14,14,08,1.30
2021,11,14,14,09,0.70
2021,11,14,14,10,0.10
2021,11,14,14,11,0.80
2021,11,14,14,12,1.50
2021,11,14,14,13,1.00
2021,11,14,14,14,3.20
2021,11,14,14,15,3.00
2021,11,14,14,16,1.90
2021,11,14,14,17,0.70
2021,11,14,14,18,0.10
2021,11,14,14,19,0.10
2021,11,14,14,20,0.60
2021,11,14,14,21,1.90
2021,11,14,14,22,0.40
2021,11,14,14,23,0.10
2021,11,14,14,24,0.10
2021,11,14,14,25,0.20
2021,11,14,14,26,0.00
2021,11,14,14,27,1.20
2021,11,14,14,28,0.20
2021,11,14,14,29,0.00
2021,11,14,14,30,0.10
2021,11,14,14,31,0.60
2021,11,14,14,32,0.40
2021,11,14,14,33,1.70
2021,11,14,14,34,0.10
2021,11,14,14,35,1.50
2021,11,14,14,36,1.60
2021,11,14,14,37,2.40
2021,11,14,14,38,1.10
2021,11,14,14,39,0.80
2021,11,14,14,40,1.10
2021,11,14,14,41,0.20
2021,11,14,14,42,0.20
2021,11,14,14,43,0.50
2021,11,14,14,44,2.10
2021,11,14,14,45,1.10
2021,11,14,14,46,0.00
2021,11,14,14,47,0.00
2021,11,14,14,48,0.00
2021,11,14,14,49,0.00
2021,11,14,14,50,0.00
2021,11,14,14,51,0.00
2021,11,14,14,52,0.00
2021,11,14,14,53,0.60
2021,11,14,14,54,2.40
2021,11,14,14,55,1.40
2021,11,14,14,56,1.50
2021,11,14,14,57,1.90
2021,11,14,14,58,3.10
2021,11,14,14,59,3.10
2021,11,14,15,00,0.30
2021,11,14,15,01,1.30
2021,11,14,15,02,0.30
2021,11,14,15,03,0.10
2021,11,14,15,04,1.10
2021,11,14,15,05,1.40
2021,11,14,15,06,2.80
2021,11,14,15,07,3.80
2021,11,14,15,08,4.30
2021,11,14,15,09,3.30
2021,11,14,15,10,4.70
2021,11,14,15,11,1.00
2021,11,14,15,12,3.10
2021,11,14,15,13,2.10
2021,11,14,15,14,1.10
2021,11,14,15,15,2.60
2021,11,14,15,16,3.90
2021,11,14,15,17,1.30
2021,11,14,15,18,3.10
2021,11,14,15,19,3.80
2021,11,14,15,20,5.40
2021,11,14,15,21,3.50
2021,11,14,15,22,3.40
2021,11,14,15,23,2.40
2021,11,14,15,24,0.50
2021,11,14,15,25,3.70
2021,11,14,15,26,3.20
2021,11,14,15,27,3.20
2021,11,14,15,28,3.50
2021,11,14,15,29,3.30
2021,11,14,15,30,4.50
2021,11,14,15,31,2.20
2021,11,14,15,32,1.30
2021,11,14,15,33,1.30
2021,11,14,15,34,0.60
2021,11,14,15,35,1.90
2021,11,14,15,36,1.30
2021,11,14,15,37,0.60
2021,11,14,15,38,1.30
2021,11,14,15,39,0.80
2021,11,14,15,40,1.70
2021,11,14,15,41,2.90
2021,11,14,15,42,3.40
2021,11,14,15,43,3.60
2021,11,14,15,44,0.00
2021,11,14,15,45,0.10
2021,11,14,15,46,3.20
2021,11,14,15,47,4.80
2021,11,14,15,48,0.20
2021,11,14,15,49,2.00
2021,11,14,15,50,3.10
2021,11,14,15,51,1.10
2021,11,14,15,52,2.10
2021,11,14,15,53,2.70
2021,11,14,15,54,2.30
2021,11,14,15,55,4.50
2021,11,14,15,56,5.30
2021,11,14,15,57,5.30
2021,11,14,15,58,5.70
2021,11,14,15,59,5.40
2021,11,14,16,00,4.00
2021,11,14,16,01,4.10
2021,11,14,16,02,8.10
2021,11,14,16,03,7.30
2021,11,14,16,04,5.00
2021,11,14,16,05,3.20
2021,11,14,16,06,3.60
2021,11,14,16,07,5.50
2021,11,14,16,08,7.30
2021,11,14,16,09,6.80
2021,11,14,16,10,5.60
2021,11,14,16,11,7.60
2021,11,14,16,12,7.20
2021,11,14,16,13,3.00
2021,11,14,16,14,5.80
2021,11,14,16,15,9.40
2021,11,14,16,16,7.30
2021,11,14,16,17,5.40
2021,11,14,16,18,11.50
2021,11,14,16,19,10.10
2021,11,14,16,20,7.20
2021,11,14,16,21,8.30
2021,11,14,16,22,8.30
2021,11,14,16,23,8.70
2021,11,14,16,24,3.80
2021,11,14,16,25,5.20
2021,11,14,16,26,4.40
2021,11,14,16,27,5.20
2021,11,14,16,28,9.40
2021,11,14,16,29,8.00
2021,11,14,16,30,8.90
2021,11,14,16,31,5.70
2021,11,14,16,32,4.60
2021,11,14,16,33,4.60
2021,11,14,16,34,4.40
2021,11,14,16,35,7.00
2021,11,14,16,36,8.60
2021,11,14,16,37,4.70
2021,11,14,16,38,11.50
2021,11,14,16,39,6.10
2021,11,14,16,40,2.40
2021,11,14,16,41,1.90
2021,11,14,16,42,3.30
2021,11,14,16,43,5.60
2021,11,14,16,44,5.40
2021,11,14,16,45,4.50
2021,11,14,16,46,6.40
2021,11,14,16,47,6.40
2021,11,14,16,48,2.70
2021,11,14,16,49,3.40
2021,11,14,16,50,3.60
2021,11,14,16,51,3.10
2021,11,14,16,52,6.10
2021,11,14,16,53,3.70
2021,11,14,16,54,4.30
2021,11,14,16,55,2.90
2021,11,14,16,56,3.90
2021,11,14,16,57,2.80
2021,11,14,16,58,3.30
2021,11,14,16,59,4.50
2021,11,14,17,00,5.60
2021,11,14,17,01,4.80
2021,11,14,17,02,10.20
2021,11,14,17,03,5.60
2021,11,14,17,04,3.10
2021,11,14,17,05,1.50
2021,11,14,17,06,3.00
2021,11,14,17,07,7.40
2021,11,14,17,08,7.00
2021,11,14,17,09,5.90
2021,11,14,17,10,6.00
2021,11,14,17,11,5.30
2021,11,14,17,12,7.60
2021,11,14,17,13,4.40
2021,11,14,17,14,1.90
2021,11,14,17,15,3.90
2021,11,14,17,16,6.30
2021,11,14,17,17,5.10
2021,11,14,17,18,7.70
2021,11,14,17,19,6.00
2021,11,14,17,20,7.40
2021,11,14,17,21,9.10
2021,11,14,17,22,6.40
2021,11,14,17,23,5.60
2021,11,14,17,24,8.30
2021,11,14,17,25,3.50
2021,11,14,17,26,3.70
2021,11,14,17,27,5.60
2021,11,14,17,28,3.90
2021,11,14,17,29,6.80
2021,11,14,17,30,5.50
2021,11,14,17,31,2.90
2021,11,14,17,32,2.30
2021,11,14,17,33,3.90
2021,11,14,17,34,3.50
2021,11,14,17,35,3.30
2021,11,14,17,36,5.50
2021,11,14,17,37,6.20
2021,11,14,17,38,3.40
2021,11,14,17,39,2.80
2021,11,14,17,40,1.20
2021,11,14,17,41,3.90
2021,11,14,17,42,4.90
2021,11,14,17,43,9.90
2021,11,14,17,44,7.50
2021,11,14,17,45,5.90
2021,11,14,17,46,8.30
2021,11,14,17,47,8.60
2021,11,14,17,48,6.20
2021,11,14,17,49,7.10
2021,11,14,17,50,5.30
2021,11,14,17,51,2.70
2021,11,14,17,52,4.10
2021,11,14,17,53,5.60
2021,11,14,17,54,5.30
2021,11,14,17,55,4.90
2021,11,14,17,56,2.20
2021,11,14,17,57,4.60
2021,11,14,17,58,6.90
2021,11,14,17,59,5.10
2021,11,14,18,00,5.30
2021,11,14,18,01,5.50
2021,11,14,18,02,7.80
2021,11,14,18,03,5.20
2021,11,14,18,04,2.20
2021,11,14,18,05,5.40
2021,11,14,18,06,8.10
2021,11,14,18,07,8.60
2021,11,14,18,08,7.20
2021,11,14,18,09,7.70
2021,11,14,18,10,7.30
2021,11,14,18,11,5.20
2021,11,14,18,12,7.30
2021,11,14,18,13,6.80
2021,11,14,18,14,6.80
2021,11,14,18,15,4.10
2021,11,14,18,16,4.60
2021,11,14,18,17,4.70
2021,11,14,18,18,5.60
2021,11,14,18,19,6.10
2021,11,14,18,20,7.30
2021,11,14,18,21,5.40
2021,11,14,18,22,5.00
2021,11,14,18,23,5.10
2021,11,14,18,24,9.70
2021,11,14,18,25,6.30
2021,11,14,18,26,8.00
2021,11,14,18,27,7.40
2021,11,14,18,28,4.80
2021,11,14,18,29,4.00
2021,11,14,18,30,5.50
2021,11,14,18,31,6.10
2021,11,14,18,32,8.10
2021,11,14,18,33,6.30
2021,11,14,18,34,6.90
2021,11,14,18,35,6.90
2021,11,14,18,36,7.90
2021,11,14,18,37,6.30
2021,11,14,18,38,6.00
2021,11,14,18,39,5.90
2021,11,14,18,40,6.20
2021,11,14,18,41,3.80
2021,11,14,18,42,4.90
2021,11,14,18,43,8.80
2021,11,14,18,44,8.40
2021,11,14,18,45,6.80
2021,11,14,18,46,6.60
2021,11,14,18,47,6.10
2021,11,14,18,48,7.30
2021,11,14,18,49,6.60
2021,11,14,18,50,5.70
2021,11,14,18,51,5.80
2021,11,14,18,52,4.30
2021,11,14,18,53,1.80
2021,11,14,18,54,2.20
2021,11,14,18,55,7.70
2021,11,14,18,56,2.70
2021,11,14,18,57,5.40
2021,11,14,18,58,5.30
2021,11,14,18,59,3.10
2021,11,14,19,00,6.60
2021,11,14,19,01,7.20
2021,11,14,19,02,4.60
2021,11,14,19,03,4.70
2021,11,14,19,04,5.10
2021,11,14,19,05,6.50
2021,11,14,19,06,4.70
2021,11,14,19,07,5.10
2021,11,14,19,08,7.80
2021,11,14,19,09,7.40
2021,11,14,19,10,4.80
2021,11,14,19,11,5.10
2021,11,14,19,12,3.00
2021,11,14,19,13,5.10
2021,11,14,19,14,2.80
2021,11,14,19,15,5.30
2021,11,14,19,16,5.10
2021,11,14,19,17,5.40
2021,11,14,19,18,2.80
2021,11,14,19,19,1.60
2021,11,14,19,20,2.10
2021,11,14,19,21,5.10
2021,11,14,19,22,3.40
2021,11,14,19,23,1.50
2021,11,14,19,24,2.10
2021,11,14,19,25,4.30
2021,11,14,19,26,1.40
2021,11,14,19,27,2.90
2021,11,14,19,28,0.30
2021,11,14,19,29,0.80
2021,11,14,19,30,0.20
2021,11,14,19,31,2.10
2021,11,14,19,32,0.60
2021,11,14,19,33,1.30
2021,11,14,19,34,0.60
2021,11,14,19,35,0.60
2021,11,14,19,36,0.70
2021,11,14,19,37,0.10
2021,11,14,19,38,0.40
2021,11,14,19,39,1.90
2021,11,14,19,40,0.00
2021,11,14,19,41,0.00
2021,11,14,19,42,0.50
2021,11,14,19,43,0.00
2021,11,14,19,44,2.30
2021,11,14,19,45,2.00
2021,11,14,19,46,2.10
2021,11,14,19,47,2.80
2021,11,14,19,48,2.10
2021,11,14,19,49,1.00
2021,11,14,19,50,3.40
2021,11,14,19,51,1.50
2021,11,14,19,52,0.20
2021,11,14,19,53,0.80
2021,11,14,19,54,2.40
2021,11,14,19,55,0.30
2021,11,14,19,56,3.90
2021,11,14,19,57,3.70
2021,11,14,19,58,3.40
2021,11,14,19,59,4.40
2021,11,14,20,00,1.90
2021,11,14,20,01,2.70
2021,11,14,20,02,3.30
2021,11,14,20,03,6.30
2021,11,14,20,04,3.80
2021,11,14,20,05,3.50
2021,11,14,20,06,1.80
2021,11,14,20,07,3.10
2021,11,14,20,08,3.70
2021,11,14,20,09,3.20
2021,11,14,20,10,0.90
2021,11,14,20,11,0.90
2021,11,14,20,12,1.50
2021,11,14,20,13,0.40
2021,11,14,20,14,0.00
2021,11,14,20,15,0.00
2021,11,14,20,16,0.10
2021,11,14,20,17,3.10
2021,11,14,20,18,1.10
2021,11,14,20,19,0.80
2021,11,14,20,20,0.00
2021,11,14,20,21,0.20
2021,11,14,20,22,0.70
2021,11,14,20,23,2.30
2021,11,14,20,24,4.20
2021,11,14,20,25,3.10
2021,11,14,20,26,2.00
2021,11,14,20,27,0.40
2021,11,14,20,28,1.60
2021,11,14,20,29,1.70
2021,11,14,20,30,0.50
2021,11,14,20,31,0.80
2021,11,14,20,32,4.90
2021,11,14,20,33,3.60
2021,11,14,20,34,1.70
2021,11,14,20,35,5.00
2021,11,14,20,36,3.90
2021,11,14,20,37,5.30
2021,11,14,20,38,0.20
2021,11,14,20,39,2.00
2021,11,14,20,40,0.00
2021,11,14,20,41,1.20
2021,11,14,20,42,0.20
2021,11,14,20,43,2.70
2021,11,14,20,44,3.80
2021,11,14,20,45,2.50
2021,11,14,20,46,0.70
2021,11,14,20,47,0.60
2021,11,14,20,48,1.80
2021,11,14,20,49,3.10
2021,11,14,20,50,1.00
2021,11,14,20,51,0.60
2021,11,14,20,52,0.60
2021,11,14,20,53,0.10
2021,11,14,20,54,0.80
2021,11,14,20,55,0.50
2021,11,14,20,56,1.00
2021,11,14,20,57,0.00
2021,11,14,20,58,2.00
2021,11,14,20,59,2.10
2021,11,14,21,00,2.40
2021,11,14,21,01,5.70
2021,11,14,21,02,1.60
2021,11,14,21,03,1.10
2021,11,14,21,04,0.70
2021,11,14,21,05,0.40
2021,11,14,21,06,0.20
2021,11,14,21,07,2.40
2021,11,14,21,08,0.60
2021,11,14,21,09,1.00
2021,11,14,21,10,3.10
2021,11,14,21,11,4.80
2021,11,14,21,12,1.40
2021,11,14,21,13,1.50
2021,11,14,21,14,3.40
2021,11,14,21,15,1.60
2021,11,14,21,16,3.50
2021,11,14,21,17,3.80
2021,11,14,21,18,5.00
2021,11,14,21,19,6.20
2021,11,14,21,20,5.30
2021,11,14,21,21,3.00
2021,11,14,21,22,0.00
2021,11,14,21,23,0.00
2021,11,14,21,24,1.70
2021,11,14,21,25,1.20
2021,11,14,21,26,1.40
2021,11,14,21,27,1.10
2021,11,14,21,28,2.00
2021,11,14,21,29,2.20
2021,11,14,21,30,4.10
2021,11,14,21,31,3.30
2021,11,14,21,32,1.80
2021,11,14,21,33,0.70
2021,11,14,21,34,1.70
2021,11,14,21,35,2.70
2021,11,14,21,36,2.60
2021,11,14,21,37,2.40
2021,11,14,21,38,2.50
2021,11,14,21,39,0.80
2021,11,14,21,40,1.80
2021,11,14,21,41,3.30
2021,11,14,21,42,1.20
2021,11,14,21,43,2.50
2021,11,14,21,44,2.10
2021,11,14,21,45,2.60
2021,11,14,21,46,2.80
2021,11,14,21,47,2.40
2021,11,14,21,48,2.60
2021,11,14,21,49,2.30
2021,11,14,21,50,4.60
2021,11,14,21,51,2.70
2021,11,14,21,52,5.10
2021,11,14,21,53,5.20
2021,11,14,21,54,6.10
2021,11,14,21,55,4.20
2021,11,14,21,56,4.50
2021,11,14,21,57,6.50
2021,11,14,21,58,4.20
2021,11,14,21,59,6.90
2021,11,14,22,00,6.10
2021,11,14,22,01,5.20
2021,11,14,22,02,6.50
2021,11,14,22,03,5.80
2021,11,14,22,04,2.90
2021,11,14,22,05,1.20
2021,11,14,22,06,0.20
2021,11,14,22,07,2.40
2021,11,14,22,08,5.10
2021,11,14,22,09,1.80
2021,11,14,22,10,2.40
2021,11,14,22,11,5.50
2021,11,14,22,12,0.50
2021,11,14,22,13,2.90
2021,11,14,22,14,5.10
2021,11,14,22,15,4.10
2021,11,14,22,16,2.90
2021,11,14,22,17,0.00
2021,11,14,22,18,0.00
2021,11,14,22,19,0.00
2021,11,14,22,20,1.80
2021,11,14,22,21,2.30
2021,11,14,22,22,0.40
2021,11,14,22,23,0.00
2021,11,14,22,24,0.80
2021,11,14,22,25,2.80
2021,11,14,22,26,1.10
2021,11,14,22,27,3.90
2021,11,14,22,28,3.40
2021,11,14,22,29,1.80